Wind_Speed
13 13 12 12 12 12 13 13 14 14 13 12 12 12 12 11 10 10 9 9 9 8 8 8 7 7 6 6 6 5 4 4 3 1 0 1 2 5 5 4 4 4 5 5 6 6 5 5 5
12 13 12 12 12 12 13 13 13 14 14 13 12 12 12 12 11 10 10 9 9 8 8 8 8 7 7 6 5 5 5 5 4 3 1 1 2 4 5 4 4 4 4 4 4 5 5 5 6
12 12 11 12 12 13 14 14 14 13 13 13 13 13 12 11 10 10 9 9 9 8 9 8 8 8 7 7 6 5 5 5 5 4 3 2 2 2 3 3 3 3 3 3 3 4 5 5 5
11 11 11 12 13 13 13 14 14 13 13 13 13 13 12 11 10 10 10 10 9 9 10 9 8 9 8 7 6 6 6 5 5 4 4 3 2 2 2 3 3 3 3 4 4 4 5 4 5
12 11 11 11 13 13 13 13 13 14 14 13 13 13 12 11 10 10 10 10 9 10 10 10 10 9 9 8 7 6 6 6 5 4 3 3 3 2 2 1 2 2 2 3 4 4 4 4 4
12 11 11 12 13 13 13 14 15 15 15 14 14 13 12 11 10 10 10 10 10 10 10 10 11 11 10 9 8 7 7 6 6 5 4 3 3 3 2 2 2 1 1 2 2 3 4 4 5
12 12 12 12 13 13 14 14 15 15 15 14 14 13 13 12 11 11 11 11 11 10 10 10 11 12 11 10 9 8 7 7 7 7 6 4 4 3 2 2 1 1 0 1 2 2 3 4 3
12 12 12 14 14 14 14 15 15 14 15 14 13 13 13 12 12 11 11 11 11 11 10 11 11 12 12 10 10 9 8 8 8 8 7 6 5 5 3 3 2 1 0 1 2 2 3 3 3
12 11 12 13 14 14 14 14 15 14 14 13 12 12 13 13 12 11 11 11 11 11 11 12 12 12 12 11 10 9 9 9 9 8 8 6 6 5 4 3 2 2 2 2 1 2 2 3 4
11 12 12 13 14 13 13 14 14 13 13 13 13 12 12 12 12 11 11 10 11 11 11 11 11 11 11 11 9 9 9 9 9 9 8 7 7 6 5 4 4 4 4 2 2 2 2 2 3
10 11 11 12 12 12 13 13 13 13 13 13 13 13 12 11 11 11 10 10 10 10 11 11 11 11 11 11 10 10 10 10 9 9 8 8 8 7 6 5 5 5 4 3 3 2 1 0 2
10 10 10 10 10 11 12 13 13 13 13 13 13 13 12 11 11 11 11 11 11 10 11 11 11 11 11 11 10 10 10 10 9 8 7 8 8 7 7 6 5 5 5 5 4 2 3 1 1
8 9 10 9 9 10 11 12 13 13 13 13 13 13 12 11 11 11 11 11 11 11 10 11 12 11 12 12 11 10 10 9 9 9 8 7 7 6 5 5 5 5 4 4 4 4 3 2 2
7 9 9 9 9 9 10 11 11 12 13 13 13 12 12 11 11 11 11 12 11 11 10 11 11 11 12 12 11 11 10 9 9 9 8 7 7 5 5 7 6 5 5 5 5 4 4 3 3
6 7 8 8 8 9 9 10 10 11 11 12 12 12 12 11 11 11 11 11 11 11 11 11 11 11 11 12 12 11 11 10 10 9 8 8 7 7 7 7 6 5 5 5 4 4 4 4 3
5 5 6 6 7 7 8 9 10 10 10 10 11 11 11 11 11 11 10 10 10 10 11 10 11 11 11 11 11 12 11 11 10 9 9 8 8 8 8 7 7 6 6 5 5 5 4 4 3
3 4 5 5 5 7 7 8 9 8 9 9 9 10 10 10 10 10 10 9 9 9 9 9 10 10 10 10 10 10 10 10 10 9 9 8 8 8 8 8 8 7 6 5 5 5 5 5 5
3 3 3 3 3 5 6 7 7 7 7 7 7 8 9 9 9 9 9 9 8 8 8 9 9 9 9 9 9 9 9 9 9 9 9 8 8 8 8 8 7 7 6 6 6 5 5 6 6
2 1 0 1 1 2 4 5 5 6 6 6 6 7 7 7 8 8 8 9 8 7 8 8 9 9 8 9 8 8 8 8 8 8 9 8 8 8 8 8 8 7 6 6 6 6 7 7 6
3 2 2 2 1 1 2 3 4 5 5 6 5 6 6 6 6 7 8 8 8 7 7 7 8 8 8 8 8 8 8 8 8 7 7 8 8 8 8 8 7 7 6 7 6 7 7 7 7
5 4 4 5 4 3 3 3 3 4 4 5 4 5 5 5 6 7 6 6 7 8 7 7 7 7 7 7 7 7 7 7 7 7 7 7 7 8 8 7 7 6 6 6 6 7 7 8 8
7 6 6 6 6 5 5 4 4 5 5 5 5 5 5 5 6 7 6 5 6 7 6 6 7 7 6 6 6 6 6 6 7 7 7 7 7 7 8 8 8 7 7 7 7 7 8 8 9
8 8 7 7 7 5 5 6 5 5 5 5 5 5 5 5 5 6 6 5 5 5 6 6 6 6 6 5 6 6 6 6 7 7 7 7 8 8 8 9 9 8 9 9 9 9 9 10 10
10 10 9 8 7 7 6 7 5 5 6 6 6 5 5 5 5 5 5 5 5 5 5 5 5 5 5 5 6 6 6 7 8 8 8 8 8 8 9 9 9 9 10 10 10 11 11 11 11
12 11 10 9 9 9 9 8 7 6 8 8 7 7 6 5 5 4 4 5 6 5 6 6 6 6 6 6 6 7 7 7 8 9 9 9 9 9 9 10 10 10 10 11 12 12 12 12 12
13 12 12 12 11 11 11 10 8 8 8 8 8 8 7 6 6 5 5 5 5 5 6 7 7 7 7 7 8 8 9 9 10 10 10 10 10 11 10 10 10 11 11 12 13 14 14 14 14
14 14 14 14 12 12 11 10 9 8 8 9 9 9 9 8 7 6 6 6 6 6 7 8 8 8 9 9 9 10 11 12 12 12 11 12 12 12 11 11 12 12 13 13 14 14 14 15 15
15 15 15 14 14 14 12 10 9 9 9 10 10 10 10 8 7 6 6 7 7 8 8 9 9 10 10 11 11 11 12 13 13 13 13 13 13 12 13 13 13 13 13 14 15 16 16 17 17
16 16 16 15 15 15 13 11 10 11 11 11 11 11 10 9 9 8 8 9 9 9 9 10 10 11 12 13 12 12 13 14 14 15 14 14 14 14 15 15 15 15 16 16 17 17 18 18 19
18 17 17 17 16 16 15 12 12 12 11 11 12 11 11 11 11 11 11 11 11 11 11 11 12 13 14 14 14 14 14 14 15 16 16 16 16 16 17 17 17 18 18 18 19 19 19 20 20
Wind_Direction
72 68 66 67 66 65 63 62 60 60 56 53 54 56 57 55 51 49 49 47 43 43 47 44 40 36 41 45 45 50 59 67 76 87 212 226 208 203 209 211 218 218 222 229 229 224 228 234 248
70 66 66 69 69 67 63 64 62 58 54 53 52 53 53 54 52 51 48 44 40 40 44 41 36 34 38 43 45 46 53 66 66 73 91 136 185 194 196 201 211 217 232 243 244 236 233 243 260
67 64 66 68 67 65 62 60 61 58 56 55 51 50 52 53 52 51 47 42 41 42 44 42 39 35 40 47 49 51 55 62 58 55 52 70 118 159 190 195 207 221 234 244 241 235 240 255 266
70 66 64 65 66 64 63 61 61 58 56 54 51 49 49 51 53 51 47 43 41 43 45 43 39 40 43 46 52 55 59 66 59 58 55 61 97 140 168 182 200 215 231 248 254 241 247 259 274
75 69 62 60 63 63 63 62 61 60 56 53 51 49 48 51 56 53 48 44 44 45 44 42 43 44 44 47 54 56 59 63 60 58 59 67 90 120 131 143 181 205 238 253 258 256 258 266 265
74 68 62 60 62 63 64 65 63 59 55 53 52 50 49 49 50 50 48 45 46 47 46 43 45 46 46 53 64 66 63 62 60 57 61 72 83 100 110 129 154 180 247 277 263 264 265 275 272
69 67 64 61 61 64 65 64 59 56 55 51 51 51 53 53 51 50 49 48 48 49 49 49 49 48 50 53 61 65 66 64 58 54 61 79 88 93 98 111 122 124 261 285 282 273 281 284 284
68 66 63 61 62 64 66 63 60 57 55 52 51 52 54 54 53 49 49 49 50 51 53 54 51 51 52 54 56 61 64 63 57 55 62 67 78 84 89 98 109 119 51 344 307 283 281 278 274
71 67 64 64 63 64 64 62 60 55 53 50 50 50 52 54 51 47 48 50 50 50 53 54 52 54 53 55 57 65 67 64 58 60 60 63 66 72 76 88 90 77 39 10 324 304 285 269 264
73 73 67 65 64 64 61 59 57 54 52 51 50 51 52 52 50 49 48 48 48 50 53 53 53 54 54 53 56 65 64 68 63 59 61 66 66 64 69 76 72 65 54 31 351 337 296 261 255
74 73 72 65 65 64 61 57 54 53 52 52 49 48 47 47 48 49 50 49 48 50 54 53 53 55 56 55 61 62 64 64 63 64 64 63 61 63 68 74 74 68 56 47 31 16 7 321 257
77 75 73 67 65 65 60 57 54 52 50 50 49 46 46 46 47 47 49 51 52 50 53 55 53 55 57 61 63 61 61 61 60 63 65 65 69 73 72 71 75 70 53 39 28 36 39 18 290
83 80 79 71 66 66 62 56 52 48 48 49 46 45 46 47 45 47 50 53 52 51 54 57 54 57 63 60 59 58 54 53 53 53 56 59 68 74 73 79 70 57 45 28 15 19 19 355 305
91 84 81 70 60 64 61 57 52 47 44 44 44 44 46 47 46 47 49 51 53 55 58 61 59 63 59 56 56 56 53 52 52 48 56 60 61 70 65 44 40 39 45 37 21 12 14 10 343
94 82 78 69 62 61 58 54 46 43 40 41 42 41 44 46 47 48 49 50 53 55 58 62 61 59 56 54 53 54 56 57 56 53 59 60 57 58 57 49 40 34 32 28 18 15 14 7 5
92 79 74 69 64 61 57 51 42 37 35 37 39 40 41 44 46 46 48 49 52 54 55 57 57 55 53 51 52 53 54 55 55 52 54 52 50 48 43 38 30 29 25 22 18 18 12 10 10
104 83 75 67 64 61 55 47 40 33 31 34 36 40 40 41 44 45 47 48 51 52 51 52 50 49 48 49 50 51 52 53 52 49 50 49 44 40 37 33 30 29 28 27 21 17 9 5 6
129 87 77 72 65 57 49 38 34 32 27 30 35 38 38 38 40 41 44 48 52 53 50 48 44 42 43 46 49 50 52 52 50 49 46 42 39 34 29 26 25 23 22 19 13 6 359 359 356
195 137 65 70 89 43 34 19 20 24 23 19 24 31 32 32 36 38 40 44 50 52 49 45 43 38 39 44 45 45 47 48 48 47 43 40 37 30 26 24 22 17 17 16 11 7 3 355 352
236 250 252 251 246 299 320 344 0 6 12 8 13 19 21 22 32 38 39 38 40 45 42 40 36 33 35 39 41 41 40 42 44 41 38 36 31 26 21 18 18 12 8 8 6 2 359 352 350
234 250 263 269 271 295 304 318 322 336 343 346 354 5 9 18 18 17 31 32 32 35 35 32 32 30 32 32 32 33 29 29 29 27 24 23 20 18 17 14 14 8 0 357 352 353 353 349 344
242 252 265 274 276 282 285 298 295 302 321 327 334 347 1 8 13 13 24 23 29 29 26 22 23 26 29 28 22 17 12 12 14 13 11 9 6 6 6 4 4 1 359 354 349 344 342 339 338
250 256 265 272 281 284 285 287 293 300 308 316 323 338 352 358 1 3 15 18 17 15 12 12 12 12 15 17 11 5 357 354 357 359 359 357 356 356 353 352 351 354 352 351 349 340 335 331 329
253 259 265 270 278 280 289 291 292 290 294 301 312 324 339 343 344 354 4 10 5 1 0 358 360 357 355 352 347 345 344 341 344 342 345 345 343 341 341 341 339 338 341 341 340 336 331 326 323
252 259 264 272 277 282 283 285 284 284 291 292 300 309 318 326 332 344 357 3 -0 354 352 350 346 339 334 332 329 328 326 326 328 326 328 330 331 328 329 332 329 327 330 329 328 327 324 322 319
249 254 262 270 276 280 278 277 277 283 289 292 296 299 302 312 326 330 338 349 351 349 340 340 340 333 326 320 315 318 318 317 317 319 321 321 320 323 324 324 320 319 320 319 319 320 319 318 315
246 252 258 266 273 278 279 279 274 274 283 290 293 292 294 301 312 326 334 328 331 336 331 327 327 327 326 319 312 313 316 317 315 312 314 318 319 321 320 318 314 315 315 314 316 317 317 314 312
245 253 260 268 276 280 282 279 281 279 278 287 291 291 292 298 300 313 325 319 319 322 324 319 319 319 319 317 313 313 311 313 318 313 309 313 314 317 318 315 313 313 313 312 312 312 311 309 308
248 254 261 266 271 279 282 281 283 283 281 282 287 286 284 290 293 300 306 308 309 311 315 313 309 309 310 309 307 309 308 311 313 313 305 306 308 309 313 313 312 311 309 308 308 308 308 307 306
251 255 261 263 268 273 277 278 277 279 281 279 282 281 281 284 290 295 299 302 304 306 308 309 305 304 304 304 303 304 304 306 306 307 301 299 302 303 303 305 307 308 308 307 306 306 305 305 304
Height
5886 5886 5886 5886 5886 5884 5882 5882 5881 5880 5879 5879 5878 5877 5876 5876 5876 5877 5875 5872 5872 5871 5870 5869 5868 5867 5866 5866 5865 5865 5865 5865 5865 5864 5864 5864 5865 5866 5867 5868 5869 5870 5871 5871 5872 5872 5873 5873 5874
5888 5888 5889 5888 5887 5885 5885 5883 5882 5882 5881 5880 5879 5878 5877 5877 5876 5876 5875 5874 5873 5872 5871 5870 5869 5868 5867 5866 5866 5865 5865 5865 5864 5864 5864 5864 5864 5864 5866 5868 5869 5870 5870 5871 5871 5872 5872 5873 5873
5890 5890 5891 5890 5888 5887 5886 5885 5884 5884 5883 5882 5881 5880 5879 5878 5878 5877 5876 5875 5874 5873 5872 5871 5870 5868 5867 5867 5866 5866 5866 5865 5865 5864 5864 5864 5863 5864 5866 5867 5868 5869 5870 5871 5871 5871 5871 5872 5872
5893 5893 5893 5891 5889 5888 5887 5887 5886 5886 5885 5884 5883 5882 5881 5880 5879 5878 5877 5876 5875 5874 5873 5871 5870 5869 5868 5867 5867 5867 5866 5866 5866 5865 5865 5864 5864 5864 5866 5867 5868 5869 5869 5870 5870 5870 5871 5871 5871
5894 5894 5894 5892 5891 5890 5889 5888 5887 5887 5887 5886 5885 5883 5882 5882 5880 5879 5879 5878 5876 5875 5874 5872 5871 5870 5869 5868 5868 5867 5867 5867 5866 5866 5866 5865 5864 5865 5866 5867 5868 5869 5869 5870 5869 5869 5870 5870 5870
5897 5896 5895 5893 5892 5892 5891 5890 5889 5888 5888 5888 5887 5885 5884 5883 5882 5881 5880 5879 5877 5876 5875 5873 5872 5871 5870 5869 5868 5868 5867 5867 5867 5867 5867 5866 5866 5866 5867 5868 5868 5869 5869 5869 5869 5868 5868 5869 5869
5898 5898 5896 5895 5894 5893 5893 5891 5891 5890 5890 5890 5888 5887 5886 5885 5884 5882 5881 5880 5879 5877 5876 5875 5873 5872 5871 5870 5869 5869 5868 5868 5868 5867 5867 5866 5867 5867 5867 5868 5868 5869 5869 5868 5868 5867 5867 5868 5868
5899 5899 5897 5897 5896 5895 5894 5893 5892 5892 5892 5891 5890 5889 5888 5887 5885 5884 5883 5881 5880 5879 5878 5876 5875 5874 5872 5872 5871 5870 5869 5869 5868 5868 5867 5867 5867 5867 5868 5868 5868 5868 5868 5868 5867 5866 5866 5866 5866
5900 5901 5899 5898 5897 5897 5896 5895 5895 5894 5893 5892 5891 5890 5889 5888 5887 5885 5884 5883 5882 5880 5879 5878 5876 5875 5874 5873 5872 5871 5871 5870 5870 5869 5868 5868 5868 5868 5868 5868 5868 5868 5868 5867 5867 5866 5865 5864 5865
5902 5901 5901 5900 5899 5898 5898 5897 5896 5896 5895 5894 5893 5891 5890 5889 5888 5887 5885 5884 5883 5882 5880 5879 5878 5877 5876 5875 5874 5873 5873 5872 5871 5870 5869 5869 5869 5868 5868 5868 5869 5869 5868 5868 5867 5865 5864 5864 5865
5903 5903 5902 5901 5900 5900 5900 5899 5898 5898 5897 5896 5894 5893 5892 5891 5890 5888 5887 5886 5884 5883 5882 5880 5879 5878 5877 5876 5875 5875 5874 5873 5873 5872 5871 5870 5869 5868 5868 5869 5869 5869 5869 5868 5868 5867 5866 5866 5866
5904 5904 5904 5903 5902 5902 5901 5901 5900 5899 5899 5897 5896 5895 5894 5892 5891 5890 5888 5887 5886 5884 5883 5882 5881 5880 5878 5878 5877 5877 5876 5875 5874 5873 5872 5871 5870 5870 5870 5870 5870 5870 5870 5869 5868 5868 5867 5867 5867
5906 5906 5905 5904 5904 5903 5903 5902 5902 5901 5900 5899 5898 5897 5896 5894 5893 5891 5890 5888 5887 5886 5885 5884 5882 5881 5880 5879 5879 5878 5877 5876 5875 5874 5874 5873 5872 5871 5871 5871 5871 5871 5870 5870 5869 5869 5868 5868 5868
5907 5907 5906 5906 5905 5905 5904 5904 5904 5903 5902 5901 5900 5898 5897 5896 5894 5893 5891 5890 5889 5888 5887 5886 5884 5883 5882 5881 5880 5879 5878 5877 5877 5876 5875 5874 5874 5873 5873 5873 5872 5871 5871 5870 5870 5870 5869 5869 5869
5908 5908 5908 5907 5907 5906 5906 5906 5905 5905 5904 5902 5901 5900 5899 5897 5896 5894 5893 5892 5890 5889 5888 5887 5886 5885 5884 5883 5882 5881 5880 5879 5878 5877 5877 5876 5875 5875 5874 5874 5873 5872 5871 5871 5871 5870 5870 5869 5869
5909 5909 5909 5909 5908 5907 5909 5908 5907 5906 5905 5904 5903 5901 5900 5899 5897 5896 5895 5893 5892 5891 5890 5889 5888 5887 5886 5885 5884 5882 5881 5880 5880 5879 5878 5877 5877 5876 5875 5875 5874 5873 5872 5872 5871 5871 5870 5870 5869
5909 5909 5909 5910 5909 5908 5909 5909 5908 5907 5906 5905 5904 5903 5902 5900 5899 5898 5896 5895 5894 5893 5891 5890 5890 5888 5887 5886 5885 5884 5883 5882 5881 5880 5879 5879 5878 5877 5876 5875 5875 5874 5873 5872 5871 5871 5870 5869 5869
5910 5910 5910 5910 5910 5910 5909 5910 5909 5908 5907 5906 5905 5904 5903 5902 5900 5899 5898 5897 5895 5894 5893 5892 5891 5890 5889 5887 5886 5885 5885 5884 5883 5881 5881 5880 5879 5878 5877 5876 5875 5874 5873 5872 5872 5871 5870 5869 5869
5910 5910 5911 5911 5910 5910 5910 5910 5910 5909 5908 5907 5906 5905 5904 5902 5901 5900 5898 5898 5897 5896 5895 5893 5892 5891 5890 5888 5888 5887 5886 5885 5883 5882 5881 5880 5880 5879 5878 5877 5876 5875 5874 5872 5871 5871 5870 5869 5868
5910 5910 5910 5911 5910 5910 5910 5910 5910 5910 5909 5908 5907 5906 5904 5903 5901 5900 5899 5898 5897 5896 5895 5894 5893 5892 5891 5889 5888 5888 5886 5885 5884 5883 5882 5882 5880 5879 5878 5877 5876 5875 5874 5872 5871 5870 5869 5869 5868
5910 5910 5910 5910 5910 5910 5910 5911 5910 5910 5909 5908 5907 5906 5904 5903 5902 5900 5899 5898 5898 5896 5895 5894 5893 5892 5891 5890 5889 5888 5887 5886 5885 5884 5883 5882 5881 5880 5878 5877 5876 5874 5873 5872 5871 5870 5869 5868 5867
5909 5909 5909 5909 5909 5909 5910 5910 5910 5909 5909 5908 5907 5906 5905 5903 5902 5901 5899 5898 5897 5896 5895 5894 5893 5892 5891 5890 5889 5888 5887 5886 5885 5884 5883 5882 5881 5880 5878 5877 5875 5874 5873 5872 5870 5869 5868 5867 5866
5907 5908 5908 5908 5908 5908 5908 5909 5910 5908 5908 5908 5907 5906 5905 5903 5902 5901 5899 5898 5897 5896 5895 5894 5893 5892 5891 5890 5889 5888 5887 5886 5885 5884 5883 5882 5881 5879 5878 5876 5875 5874 5872 5871 5869 5868 5867 5865 5864
5906 5906 5906 5906 5907 5907 5907 5907 5908 5908 5907 5907 5906 5905 5904 5903 5902 5901 5899 5898 5897 5896 5895 5894 5893 5891 5891 5890 5889 5888 5887 5886 5885 5884 5883 5881 5880 5878 5877 5875 5874 5873 5871 5870 5868 5867 5865 5864 5862
5904 5905 5905 5905 5906 5906 5906 5906 5907 5906 5906 5906 5905 5904 5903 5902 5901 5900 5898 5897 5896 5895 5894 5893 5892 5891 5890 5889 5888 5887 5886 5885 5884 5882 5881 5880 5878 5877 5875 5874 5873 5871 5870 5869 5867 5865 5864 5862 5860
5901 5903 5904 5904 5904 5904 5904 5904 5905 5905 5905 5904 5904 5903 5902 5901 5900 5899 5897 5896 5895 5894 5893 5892 5891 5890 5889 5888 5887 5886 5885 5884 5882 5881 5880 5878 5877 5875 5874 5872 5871 5870 5868 5867 5865 5863 5861 5860 5858
5899 5900 5902 5902 5902 5902 5902 5903 5903 5903 5903 5902 5902 5901 5901 5900 5899 5898 5896 5896 5895 5894 5893 5891 5890 5889 5888 5887 5886 5884 5883 5882 5881 5879 5878 5876 5875 5873 5872 5870 5869 5867 5866 5864 5863 5861 5859 5857 5855
5897 5898 5899 5899 5899 5899 5900 5900 5901 5901 5901 5901 5900 5900 5899 5899 5898 5897 5895 5894 5893 5892 5891 5890 5889 5888 5887 5886 5884 5883 5881 5880 5879 5877 5876 5874 5873 5871 5869 5868 5866 5865 5863 5861 5860 5858 5856 5854 5852
5894 5895 5896 5896 5897 5897 5897 5901 5899 5899 5899 5899 5898 5897 5897 5897 5896 5895 5894 5893 5891 5890 5889 5888 5887 5886 5884 5883 5882 5880 5879 5877 5876 5875 5873 5871 5870 5869 5867 5865 5863 5862 5860 5858 5856 5854 5852 5850 5848
5891 5892 5893 5894 5895 5894 5895 5899 5896 5896 5896 5896 5896 5895 5894 5894 5894 5893 5892 5890 5889 5888 5887 5886 5884 5883 5881 5880 5878 5876 5875 5874 5873 5871 5869 5868 5867 5865 5863 5862 5860 5858 5856 5854 5852 5850 5848 5846 5843